LILACSAT-1 (42725 NORAD) Tracking and Keplerian Element Data

This shows tracking and keplerian element data for the satellite.

Feedback or suggestion? Click here.




ElementValue
Catalog42725
NameLILACSAT-1
Epoch Orbit8409
Epoch Day317.88278633
Epoch Year2018
RAAN309.9481
Inclination51.6374
Eccentricity0.0005967
Argument of Perigee70.1185
Mean Anonmoly3.4293
Mean Motion15.79329705
Decay Rate0.00059475
L11 42725U 98067ME 18317.88278633 .00059475 00000-0 32397-3 0 9992
L22 42725 51.6374 309.9481 0005967 70.1185 3.4293 15.79329705 84091

Live tracking and technical data element details for LILACSAT-1 (NORAD 42725). LILACSAT-1 can be tracked NOW for your location showing map with azimuth and elevation plus other details from your city location.

Track the satellite on the map from your city or location and see movement details for azimuth, elevation, latitude, longitude, range, height, and movement on the map or in text.







IsCatalogInMostPopularTable: catalog: 42725, numindb: 165
Update: records affected: 1



GetName: 42725 LILACSAT-1

Hit Count: updated at: Wed, 14 Nov 2018 15:02:49 GMT